< < Back
Terminal Aerodrome Forecast


Current Version              Previous Versions:   1  2  3  4  5  6  7  8  9  

Terminal Aerodrome Forecast

364
FTUS42 KGSP 291400 AAB
TAFCLT
TAF AMD
KCLT 291451Z 2915/3012 06008KT P6SM SCT020 SCT070
      TEMPO 2915/2916 P6SM OVC020
     FM291800 08005KT P6SM FEW250
     FM300000 12003KT P6SM FEW050=

Latest METAR

857
SAUS70 KWBC 300400 RRC
MTRCLT
METAR KCLT 300352Z 09006KT 10SM FEW250 26/22 A3016 RMK AO2 SLP204
T02560217 $


USA.gov is the U.S. government's official web portal to all federal, state and local government web resources and services.